Skip Page Navigation
NASA JPL Caltech
NASA Logo - Jet Propulsion Laboratory + View the NASA Portal
+ Center for Near-Earth Object Studies
JPL Home Earth Solar System Stars & Galaxies Technology
JPL Solar System Dynamics
BODIES ORBITS EPHEMERIDES TOOLS PHYSICAL DATA DISCOVERY FAQ SITE MAP
JPL Small-Body Database Browser
Search: [ help ]  
218601 (2005 NR55)
Classification: Main-belt Asteroid          SPK-ID: 2218601
Ephemeris | Orbit Diagram | Orbital Elements | Mission Design | Physical Parameters | Discovery Circumstances | Close-Approach Data ]

[ hide orbit diagram ]

For accurate long-term ephemerides, please instead use our Horizons system.This orbit viewer was implemented using two-body methods, and hence should not be used for determining accurate long-term trajectories (over several years or decades) or planetary encounter circumstances.


Orbital Elements at Epoch 2459200.5 (2020-Dec-17.0) TDB
Reference: JPL 13 (heliocentric ecliptic J2000)
 Element Value Uncertainty (1-sigma)   Units 
e .2090443532767588 3.6687e-08  
a 2.625290815210943 1.945e-08 au
q 2.076488594581757 9.8693e-08 au
i 16.69410376045451 7.6199e-06 deg
node 198.3886971244096 1.3589e-05 deg
peri 75.34199932166655 2.3761e-05 deg
M 249.7185093553377 2.1482e-05 deg
tp 2459676.453672847576
(2022-Apr-06.95367285)
9.5617e-05 TDB
period 1553.690662172969
4.25
1.7266e-05
4.727e-08
d
yr
n .2317063549165632 2.575e-09 deg/d
Q 3.174093035840129 2.3516e-08 au
  Orbit Determination Parameters
   # obs. used (total)      370  
   data-arc span      15184 days (41.57 yr)  
   first obs. used      1979-06-16  
   last obs. used      2021-01-10  
   planetary ephem.      DE431  
   SB-pert. ephem.      SB431-N16  
   condition code      0  
   norm. resid. RMS      .60434  
   source      ORB  
   producer      Otto Matic  
   solution date      2021-Feb-24 12:52:34  

Additional Information
 Earth MOID = 1.13147 au 
 Jupiter MOID = 2.09745 au 
 T_jup = 3.313 
[ show covariance matrix ]

Ephemeris | Orbit Diagram | Orbital Elements | Mission Design | Physical Parameters | Discovery Circumstances | Close-Approach Data ]

Physical Parameter Table
Parameter Symbol Value Units Sigma Reference Notes
absolute magnitude H 16.2   n/a MPO459970  

218601 (2005 NR55)          Discovered 2005-Jul-11 by Lowe, A. at Mayhill
Reference: 20090904/Numbers.arcLast Updated: 2009-09-08

[ show close-approach data ]
Alternate Designations
 2005 NR55 = 2001 QS258 
Ephemeris | Orbit Diagram | Orbital Elements | Mission Design | Physical Parameters | Discovery Circumstances | Close-Approach Data ]
ABOUT SSD CREDITS/AWARDS PRIVACY/COPYRIGHT GLOSSARY LINKS
FirstGov 2021-Mar-08 16:38 UT
(server date/time)  
NASA Home Page
Site Manager:   Ryan S. Park
Webmaster  Alan B. Chamberlin